Location: Glums�
(55.3568°N, 11.6856°E)
Time: 13:09:16
(UTC+00:00)

Cosmos 2084 Rocket - Pass Details

Date: 07 June 2020
Orbit: 557 x 624 km, 62.8° (Epoch: 15 July)

Event Time Altitude Azimuth Distance (km) Brightness Sun altitude
Rises 00:05:14 0° 305° (NW) 2,869 7.3 -11.0°
Reaches altitude 10° 00:07:40 10° 296° (WNW) 1,971 6.3 -11.0°
Maximum altitude 00:11:38 32° 233° (SW) 1,067 4.4 -10.8°
Enters shadow 00:14:59 13° 175° (S) 1,766 5.3 -10.7°
